Regional Weather Roundup
Issued by NWS Lake Charles, LA

Current Version | Previous Version | Text Only | Print | Product List | Glossary On
Versions: 1 2 3 4 5 6 7 8 9 10 11 12 13 14 15 16 17 18 19 20 21 22 23 24 25 26 27
000
ASUS44 KLCH 040010
RWRLCH
REGIONAL WEATHER ROUNDUP
NATIONAL WEATHER SERVICE LAKE CHARLES LA
700 PM CDT TUE MAY 03 2016

Note: "fair" indicates few or no clouds below 12,000 feet with no
significant weather and/or obstructions to visibility.


ACROSS SOUTHEAST TEXAS

CITY           SKY/WX    TMP DP  RH WIND       PRES   REMARKS
BEAUMONT       SUNNY     73  53  49 N12       29.94R
BEAUMONT CITY  FAIR      74  53  48 N10       29.96R
ORANGE         CLEAR     73  51  45 N6        29.96R
JASPER         SUNNY     70  52  51 N9        30.00S
$$

ACROSS CENTRAL LOUISIANA

CITY           SKY/WX    TMP DP  RH WIND       PRES   REMARKS
LEESVILLE      SUNNY     70  54  57 VRB7      29.96S
FULLERTON      FAIR      70  54  56 VRB3      29.94R
ALEXANDRIA INT CLEAR     70  56  61 NW9       29.94S
ESLER FIELD    CLEAR     73  55  53 N7        29.96R
DERIDDER       FAIR      71  55  56 NW7       29.99R
OAKDALE        CLEAR     72  56  57 N5        29.95R
OPELOUSAS      FAIR      72  58  62 N9        29.93S
$$

ACROSS SOUTHWEST AND SOUTH CENTRAL LOUISIANA

CITY           SKY/WX    TMP DP  RH WIND       PRES   REMARKS
SULPHUR        CLEAR     74  56  52 N10       29.95R
LAKE CHARLES   CLEAR     74  56  53 N9        29.94R
CHENNAULT INT  CLEAR     73  57  56 NW12      29.94R
CAMERON PHI    CLEAR     75  59  57 N10G16    29.95S
DEQUINCY       FAIR      71  53  52 NW10      29.96R
JENNINGS       FAIR      73  57  56 N7        29.93S
LAFAYETTE        N/A     74  57  55 N9        29.93R
NEW IBERIA     CLEAR     73  58  59 N7        29.93R
ABBEVILLE      FAIR      73  59  62 N9        29.93R
PATTERSON      NOT AVBL
SALT POINT       N/A     73  64  73 CALM      29.91S
$$

SELECTED SITES ACROSS THE REGION

CITY           SKY/WX    TMP DP  RH WIND       PRES   REMARKS
HOUSTON BUSH   SUNNY     72  50  45 N10G20    29.97R
HOUSTON HOBBY  SUNNY     76  49  38 N10       29.95S
GALVESTON      SUNNY     73  54  51 N14       29.96R
COLLEGE STAT   SUNNY     72  45  37 N14G21    30.00S
CONROE         SUNNY     72  49  44 N9        29.98S
HUNTSVILLE     SUNNY     72  49  44 VRB7      29.99S
LUFKIN         SUNNY     71  49  45 N5        29.99S
SHREVEPORT     MOSUNNY   70  48  45 N9        29.99S
MONROE         PTCLDY    70  52  52 N10       29.98R
NATCHEZ MS     CLOUDY    70  55  60 N5        29.96R
BATON ROUGE    PTCLDY    74  57  55 NW5       29.92R
N.O. INTL ARPT PTCLDY    74  64  71 N6        29.90S
SLIDELL        PTCLDY    74  65  73 N3        29.89S
$$

MARINE REPORTS

STATION/POSITION TIME  SKY/WX   TEMP    WIND        PRES    VSBY
                                AIR SEA DIR/SP/G
                 (UTC)          (F)     (DEG/KT/KT) (MB)    (MI)
BUOY 30 S HIGH I 2350            74 76  330/ 12/ 14 1013.5R
WVE H/P(F/S)=  2/ 8

SEA RIM ST PARK  0000            74      10/  9/ 11 1014.4R
PORT ARTHUR      2300               76              1013.9R
SABINE PASS N    2300            75 77              1015.0R
TEXAS POINT      NOT AVBL
CALCASIEU PASS   2300            75 76              1012.5F
LK CHARLES BEACH 2300            75 73              1014.0S
MARSH ISLAND     NOT AVBL
FRESH WATER LOCK 2300            74 75              1013.8R
AMERADA PASS     2300            74 76              1012.7R
$$




USA.gov is the U.S. government's official web portal to all federal, state and local government web resources and services.